{"data":{"norad_id":63995,"intl_designator":"2025-101B","name":"STARLINK-34154","alt_names":[],"object_type":"PAYLOAD","status":"ACTIVE","operator":null,"country":"US","launch_date":"2025-05-14","launch_site_code":"AFETR","launch_vehicle":null,"mission":null,"orbit_class":"UNKNOWN","rcs_meters":null,"size_class":null,"mass_kg":null,"dimensions":null,"purposes":["comms"],"wikipedia_slug":null,"has_3d_model":false,"image_url":null,"decayed_at":null,"tle_current":{"epoch":"2026-09-20T22:03:32.599584Z","epoch_age_seconds":107372,"freshness":"FRESH","line1":"1 63995U 25101B   26263.91912731  .00012668  00000+0  46897-3 0  9992","line2":"2 63995  43.0019 335.3603 0001533 268.6162  91.4514 15.27586829 76917","mean_motion":15.27586829,"eccentricity":0.0001533,"inclination_deg":43.0019,"raan_deg":335.3603,"arg_perigee_deg":268.6162,"mean_anomaly_deg":91.4514,"bstar":0.00046897,"rev_number":7691,"period_min":94.266327298898,"perigee_km":481.97683093933,"apogee_km":484.08046432689,"semimajor_km":6861.1656476331,"source":"CELESTRAK","updated_at":"2026-09-21T09:00:35.179786Z"}}}